Wind_Speed
51 51 52 53 55 57 60 64 66 67 69 71 73 76 79 81 82 83 82 81 81 81 81 79 79 78 76 75 73 71 70 69 68 68 67 66 67 67 65 65 64 61 59 58 58 58 56 54 52 51 50 50 49 47 46 45 43 43 42 40 37 33 31 30 30 30 29 29 28 26 24 23 21 19 19 19 18 17 16 15 15 15 14 13 12 11 9 8
51 52 52 53 55 56 58 61 64 66 68 70 71 73 76 79 81 82 83 82 81 81 82 81 80 79 78 77 76 74 72 71 69 67 65 66 68 68 67 67 65 63 61 60 60 59 58 56 55 54 53 52 51 49 49 47 45 44 43 42 38 33 31 32 33 32 30 30 29 28 26 25 23 21 21 20 19 18 17 16 15 16 15 15 14 13 12 10
52 53 54 54 56 58 58 59 62 65 67 69 70 71 74 77 79 81 82 83 82 81 82 82 81 80 80 79 78 76 74 73 70 66 65 67 67 68 68 67 66 65 63 62 62 61 60 58 57 56 55 54 53 52 51 50 48 47 46 44 39 34 34 35 36 34 32 31 30 29 28 26 25 24 23 23 22 21 20 17 16 17 16 16 16 15 14 13
52 54 55 56 58 59 60 61 62 64 66 68 69 70 72 74 77 79 80 82 82 82 81 82 82 81 80 80 79 78 77 75 71 67 67 67 67 67 68 68 68 67 66 65 64 63 62 60 59 58 57 57 55 54 54 52 51 50 48 45 39 37 38 38 37 37 35 33 32 30 29 28 28 27 26 25 24 24 23 19 18 18 18 17 17 17 16 15
52 55 57 58 59 61 62 63 63 64 65 67 68 70 71 72 74 76 78 80 82 83 81 81 82 82 81 81 81 80 79 77 73 70 70 68 67 67 67 68 69 68 67 67 66 65 63 62 61 60 59 59 57 57 56 54 53 52 50 46 41 41 41 40 40 40 39 36 34 32 30 30 30 29 28 27 26 27 26 22 21 20 19 18 18 18 17 17
53 55 57 59 60 61 62 64 64 65 65 66 67 69 70 71 73 74 76 78 80 82 82 81 81 82 82 81 82 82 81 79 74 73 72 70 68 67 67 68 68 68 69 68 68 66 65 64 63 62 61 60 59 58 57 55 55 54 52 48 45 44 43 42 42 43 41 39 36 34 33 33 32 31 30 28 28 30 28 25 24 23 21 20 19 19 18 18
54 55 57 59 59 60 61 63 64 65 66 66 67 68 69 70 71 72 74 76 77 80 82 82 81 81 83 83 83 85 84 80 77 75 74 72 70 68 68 68 68 68 68 69 69 68 67 66 64 63 62 61 60 59 57 56 57 57 54 50 48 46 45 44 45 44 44 42 39 38 36 35 33 32 31 29 30 31 29 27 27 25 24 23 21 20 19 18
55 55 55 56 56 56 57 59 62 64 65 67 67 67 69 70 70 71 72 74 75 77 79 81 81 81 82 84 85 86 85 81 77 78 76 73 72 70 70 69 69 68 68 68 68 68 68 67 66 65 64 63 62 60 58 58 59 59 56 53 50 49 47 47 47 47 46 44 42 41 39 36 35 34 32 31 32 32 30 28 28 27 26 26 24 22 20 19
54 53 51 51 50 49 49 53 57 61 63 65 67 67 67 69 70 70 71 72 73 75 77 79 81 81 81 83 86 88 86 81 79 80 78 75 73 73 72 71 70 69 68 67 68 68 69 68 68 67 66 65 63 61 60 60 61 60 57 54 52 51 50 49 49 49 48 46 45 43 41 39 38 37 34 32 33 33 30 29 28 28 28 28 27 24 22 21
51 49 46 44 41 38 39 43 48 53 59 63 65 66 67 68 69 70 70 70 71 73 75 77 79 81 82 82 86 88 86 83 80 81 80 77 75 74 73 72 71 70 69 68 67 68 68 68 68 68 68 67 66 64 62 63 63 61 58 55 54 53 53 53 52 51 50 49 48 46 44 42 41 41 37 33 34 34 31 30 30 29 29 29 28 26 25 23
47 44 40 36 33 32 33 35 38 43 49 58 63 65 66 66 67 69 69 69 70 71 72 74 77 80 82 83 85 86 86 84 82 81 81 80 77 75 75 74 73 72 70 69 68 67 67 68 68 69 69 69 68 67 66 65 65 62 59 58 58 56 55 56 55 54 53 52 50 49 47 46 46 44 38 33 35 35 32 32 31 30 30 30 29 28 27 26
41 38 35 31 29 29 29 30 32 33 37 47 57 62 64 65 67 67 68 68 68 69 70 72 75 77 81 84 84 83 85 85 83 82 82 81 79 77 76 75 74 73 72 71 69 68 68 68 68 69 69 69 69 68 68 67 67 64 62 61 60 58 58 58 57 56 55 54 52 51 52 51 50 46 37 35 37 37 35 34 33 32 32 31 30 29 28 28
33 31 30 29 28 27 27 28 29 29 30 35 46 57 61 63 65 66 67 67 67 68 69 70 73 74 78 83 83 81 82 84 85 84 82 82 81 79 78 76 75 75 74 72 71 69 69 69 68 68 69 69 69 69 69 68 68 67 65 64 63 61 61 59 58 57 57 57 54 54 56 54 52 47 40 39 41 40 38 37 36 35 34 33 32 31 30 29
28 26 27 28 29 28 26 27 27 27 28 30 35 47 57 61 63 65 65 66 67 68 68 69 70 71 76 81 81 81 81 83 86 86 84 82 81 80 79 77 76 76 75 74 73 71 70 70 69 69 70 69 69 69 69 69 69 68 68 68 66 64 63 61 59 59 59 59 56 57 60 56 53 50 44 43 44 43 42 39 38 37 35 35 34 33 32 31
25 22 24 28 31 30 27 26 26 25 25 27 29 36 46 54 60 63 64 65 66 67 67 67 67 70 75 77 79 81 81 83 85 85 85 83 82 81 80 78 77 76 76 76 75 73 72 72 71 70 71 70 69 69 69 69 69 69 70 69 67 66 65 62 61 61 61 60 57 59 63 59 55 52 46 46 47 47 45 42 40 39 37 37 36 35 34 33
25 22 24 27 28 29 27 25 25 24 23 24 27 31 38 44 52 60 62 63 65 66 65 66 67 69 73 75 77 80 82 83 83 83 84 84 83 82 81 80 78 77 77 77 76 75 74 74 73 72 72 71 71 70 69 70 70 69 69 68 67 66 64 63 61 62 62 61 61 63 65 63 58 53 49 48 49 49 48 45 43 42 40 39 38 37 37 36
24 24 24 25 25 26 26 24 23 23 22 22 24 28 32 36 44 54 59 61 64 66 65 65 67 68 72 75 76 78 81 82 82 80 82 84 83 82 82 81 79 78 77 77 77 76 75 75 75 74 74 73 72 71 72 71 69 67 67 66 65 65 63 62 62 62 63 63 64 65 66 65 60 54 51 50 50 50 50 48 46 45 43 42 42 41 40 39
22 25 25 24 23 23 25 24 21 21 20 19 21 24 27 30 36 46 54 58 62 66 66 67 68 68 70 72 73 75 78 81 81 79 79 83 84 83 83 82 81 80 78 78 78 78 77 76 76 76 76 76 75 74 73 68 65 64 64 63 63 63 63 63 63 62 63 64 65 66 66 66 62 56 53 52 51 52 52 50 48 47 47 46 45 44 42 41
20 24 25 23 21 21 22 22 20 19 17 17 20 23 25 26 29 37 47 53 59 64 66 67 67 68 68 68 69 72 75 78 80 79 79 81 83 83 83 83 83 82 80 79 78 79 79 78 79 79 79 77 75 73 69 65 64 63 62 62 63 64 63 63 62 59 59 63 64 64 64 65 63 57 53 53 52 53 53 52 51 49 49 48 47 46 44 43
18 22 25 22 19 18 19 20 18 17 16 17 20 21 22 24 26 31 39 47 53 59 63 64 65 65 65 66 67 70 73 75 77 77 77 79 81 81 81 82 83 83 82 80 79 79 80 81 82 81 78 74 72 71 69 68 66 64 64 66 66 66 65 62 61 58 57 60 61 61 62 62 60 56 51 52 54 54 54 55 53 51 50 49 48 48 47 46
16 20 23 21 19 17 17 17 16 15 16 18 19 19 21 24 26 28 33 41 47 52 58 62 64 64 65 66 67 68 70 73 73 72 74 77 77 77 78 80 81 82 83 81 80 80 81 82 82 79 75 73 72 71 72 72 69 68 69 69 68 68 66 63 62 60 58 60 60 60 61 61 59 55 50 50 52 53 53 54 53 52 51 50 49 49 48 48
14 17 20 20 17 15 14 14 13 14 16 19 19 20 22 26 27 27 30 36 41 47 54 60 63 64 65 66 67 68 69 71 71 69 71 74 75 74 74 77 80 82 82 82 82 82 83 84 81 77 74 74 74 74 74 74 73 73 72 71 70 69 67 65 64 62 61 61 61 62 63 62 60 57 51 49 50 51 52 52 52 51 50 49 49 49 49 49
13 15 16 16 14 12 11 10 11 14 16 18 20 20 22 25 27 27 28 31 35 41 48 56 61 63 64 66 67 67 68 71 71 68 68 70 72 72 71 73 77 80 83 84 83 83 85 83 78 76 76 76 77 77 77 77 77 76 75 74 72 70 69 68 66 64 64 63 63 64 64 64 62 59 55 51 49 50 50 48 48 49 47 46 46 46 47 47
12 13 14 12 10 9 9 9 11 13 15 17 19 21 21 22 25 26 27 29 32 35 41 49 58 63 64 65 67 67 68 70 70 68 66 68 70 70 70 69 70 75 81 83 83 84 85 81 77 77 77 78 80 81 80 80 79 78 77 76 73 72 72 71 69 68 66 66 66 66 68 68 64 62 59 53 51 50 49 47 47 46 45 44 43 43 43 43
10 11 12 10 8 8 8 8 10 12 13 15 18 20 20 20 23 25 25 27 30 32 36 43 52 60 62 65 68 68 68 69 69 66 63 64 67 68 68 67 66 69 75 80 82 84 84 82 79 78 78 79 81 82 80 79 79 78 78 76 74 74 74 73 72 70 69 70 68 68 72 71 65 65 62 57 55 52 49 49 48 46 45 44 43 42 41 41
10 9 9 9 8 8 8 9 10 11 12 15 17 17 18 19 20 22 24 27 28 29 33 38 46 54 59 64 66 66 69 69 68 67 63 61 64 65 65 65 65 64 65 71 78 83 84 83 81 80 80 81 82 82 80 79 79 79 78 76 74 74 75 75 74 73 73 73 72 71 74 73 70 68 65 61 58 55 52 52 50 48 46 46 45 43 42 42
9 8 7 7 8 8 9 9 10 12 13 16 17 17 18 18 18 21 24 27 27 26 29 34 41 47 52 59 63 65 69 69 67 68 66 62 61 61 62 63 64 64 62 62 69 79 82 81 82 83 83 83 84 83 81 79 80 80 79 77 75 75 75 76 76 75 76 75 76 75 74 76 75 70 65 63 61 58 56 53 51 50 48 48 47 45 44 44
8 8 7 7 7 8 8 9 11 12 13 16 17 18 18 18 18 21 25 28 25 23 25 30 36 42 46 53 60 64 67 66 65 66 65 64 62 60 61 63 62 63 62 59 64 72 76 78 81 83 84 86 86 84 82 80 80 80 81 79 76 75 75 76 76 76 77 76 78 78 76 78 78 71 67 65 62 62 59 55 52 51 51 50 49 48 46 46
7 6 6 6 8 8 9 10 12 13 15 17 19 19 19 20 20 22 26 28 25 22 21 24 30 37 42 48 56 61 63 65 65 65 63 64 65 62 61 62 62 62 61 59 61 64 68 73 78 82 84 85 84 82 81 81 80 80 80 79 75 75 75 75 77 77 77 78 81 80 78 79 79 74 70 67 64 63 61 57 53 52 53 53 51 50 49 48
5 5 5 6 8 9 10 12 13 15 17 19 20 20 21 22 22 24 27 27 24 23 21 21 23 29 36 43 50 55 61 65 65 64 64 65 65 62 59 58 61 62 60 59 60 61 63 68 73 78 82 83 82 80 80 79 79 79 79 79 77 76 75 74 76 76 77 81 84 82 78 80 81 77 72 69 66 63 62 61 57 54 55 55 54 52 52 51
6 5 6 6 7 9 11 13 16 18 21 21 21 22 23 24 24 26 27 24 23 26 25 22 20 22 29 37 44 49 55 62 65 65 65 64 64 64 61 58 60 62 59 57 58 59 63 67 69 72 77 80 80 80 81 81 81 79 79 80 79 77 76 76 76 76 79 85 85 81 78 81 84 79 73 71 68 64 64 64 61 57 56 56 56 55 54 54
5 5 6 6 7 10 14 18 21 23 24 24 23 23 24 26 26 26 25 23 24 27 27 25 22 19 21 29 39 44 48 54 61 64 65 65 64 64 64 61 60 62 62 61 59 58 61 66 68 69 72 76 79 81 83 84 84 82 81 81 80 80 79 79 80 80 84 87 84 81 81 84 86 81 76 73 69 66 65 65 64 60 58 57 57 57 56 56
4 5 7 8 10 14 19 23 25 23 23 23 22 19 22 26 26 23 23 23 24 25 26 26 25 20 17 22 30 39 44 49 53 58 61 64 65 64 64 62 60 60 61 61 61 62 62 63 65 68 69 72 75 79 82 84 85 85 85 85 84 83 83 84 85 86 87 87 84 84 84 87 89 82 77 75 72 68 65 65 66 63 60 59 58 58 58 57
7 8 10 12 15 18 23 26 25 21 20 20 19 19 23 26 24 21 22 21 21 23 24 27 28 25 20 19 22 29 39 46 50 52 55 60 65 66 66 64 61 60 59 59 61 64 64 63 64 66 68 69 72 75 78 79 81 82 83 84 85 85 85 86 86 87 88 87 86 87 87 90 89 82 79 78 74 71 66 66 68 65 62 61 59 58 58 58
10 11 13 16 18 21 25 28 25 20 19 18 18 21 22 22 21 21 21 20 21 22 24 26 29 29 27 23 21 22 29 39 47 50 51 55 60 64 65 64 63 61 60 61 61 61 63 65 63 60 60 63 65 69 71 74 77 78 79 82 85 85 85 86 87 86 86 84 85 87 88 90 87 82 81 79 74 72 69 67 68 66 64 62 60 59 58 59
15 16 17 19 21 23 27 28 23 20 19 18 19 20 19 17 17 18 18 19 21 22 24 26 29 31 32 29 24 20 23 32 42 48 49 51 55 60 63 63 63 62 63 63 61 59 60 61 60 58 57 58 59 61 64 69 71 72 75 78 80 82 83 83 84 85 84 84 85 88 88 88 87 84 82 78 75 75 72 69 68 66 65 64 62 61 60 60
18 19 20 21 23 26 28 26 22 20 21 20 20 18 15 15 16 17 18 19 21 23 25 27 29 31 33 33 28 24 22 25 34 42 46 50 53 56 61 64 63 62 61 61 61 61 60 57 56 57 58 57 56 57 61 64 64 65 69 71 71 77 80 77 78 80 82 85 88 90 89 88 88 86 81 77 76 76 74 71 69 66 65 65 63 63 63 62
21 22 23 24 25 26 26 24 21 21 22 22 20 17 15 16 16 18 19 19 21 23 25 26 28 31 33 33 30 29 27 23 25 33 39 45 51 51 55 62 65 63 58 58 61 61 61 60 56 54 56 55 54 57 60 61 62 64 65 64 65 72 75 75 76 78 80 85 89 90 90 90 89 87 82 77 75 74 74 74 70 66 65 65 65 65 64 63
20 23 24 24 24 23 22 21 20 22 23 22 18 15 15 15 17 19 19 20 22 24 25 26 28 31 33 32 29 30 33 26 23 27 31 36 44 47 49 54 62 65 60 57 59 58 59 62 59 54 54 56 56 59 61 60 60 62 62 60 62 65 69 70 72 75 78 82 86 88 90 91 89 85 82 77 74 74 74 73 71 69 67 65 65 65 65 65
17 18 19 21 21 19 18 18 20 22 22 19 14 13 13 14 16 18 19 20 21 23 25 26 28 31 33 34 31 30 32 29 25 26 28 28 34 42 47 49 54 62 64 59 54 53 56 61 62 59 56 58 60 61 61 60 60 62 63 62 61 62 65 67 68 70 72 75 79 83 88 90 87 83 81 78 76 77 75 74 74 74 69 66 64 64 64 64
17 16 17 17 17 16 16 17 18 20 20 16 13 11 12 13 14 16 19 21 21 22 24 26 28 30 32 36 37 34 33 30 27 28 28 27 28 35 42 47 49 54 63 65 59 53 54 58 61 63 63 61 60 57 55 57 60 62 63 63 61 60 61 64 67 68 69 72 76 81 85 88 87 85 83 78 76 77 75 73 73 74 72 69 66 64 63 62
20 18 16 16 16 16 16 16 17 19 18 15 13 11 11 12 13 14 18 21 22 23 24 25 27 29 31 35 38 39 38 35 32 31 30 27 26 28 34 42 46 49 57 67 66 57 52 53 56 62 66 65 62 59 57 56 57 58 59 61 59 58 59 60 63 65 66 71 74 77 83 86 85 84 82 78 76 76 74 72 71 72 72 69 66 64 63 62
22 20 17 16 17 17 17 17 17 17 17 16 14 11 10 11 12 14 17 20 23 23 24 25 26 28 30 33 36 40 42 40 38 35 31 29 27 26 28 32 40 46 52 60 66 64 59 56 55 56 61 64 66 66 64 60 58 57 59 60 60 60 60 60 62 62 64 67 66 69 76 80 78 76 74 73 73 72 72 72 71 71 70 67 64 62 61 61
21 21 19 17 17 18 19 18 16 16 17 16 15 13 12 11 12 14 16 19 22 23 24 24 24 27 30 32 35 39 41 42 41 38 34 31 29 28 28 28 33 41 47 52 60 67 70 64 56 54 56 58 63 67 69 67 65 63 62 62 62 61 61 61 61 60 63 65 62 64 71 74 74 72 71 70 69 69 69 69 69 68 67 65 63 60 59 59
21 21 20 18 18 19 20 18 17 17 18 18 16 14 13 12 12 13 16 18 20 22 24 24 25 27 30 33 36 38 40 42 42 41 38 33 30 31 31 31 34 38 42 46 51 60 70 71 65 61 60 59 60 64 67 67 66 66 65 64 63 62 61 61 60 60 63 64 63 66 70 70 69 68 68 69 69 68 67 67 67 67 65 63 62 61 60 59
23 21 19 18 19 20 21 20 19 19 20 19 18 16 15 14 13 14 16 18 19 22 24 25 27 27 29 32 35 36 38 40 41 42 40 35 32 34 34 32 33 37 39 43 47 51 60 70 72 70 65 61 59 58 58 59 62 66 66 65 64 64 63 63 65 66 65 64 66 67 66 64 64 63 62 63 63 63 61 61 63 63 62 61 60 60 60 60
24 23 21 18 18 19 20 21 22 21 21 21 20 18 17 17 15 15 16 17 19 22 23 25 27 28 29 30 33 35 37 38 40 42 42 39 35 35 37 34 32 35 39 41 45 48 52 60 70 74 73 67 61 55 54 57 59 60 61 61 62 63 64 66 69 68 63 65 69 66 61 63 62 59 58 57 56 56 55 55 57 58 59 60 60 61 61 61
25 23 22 21 19 19 19 21 22 22 22 22 21 19 18 18 17 17 17 17 18 20 23 24 25 27 28 30 32 34 36 38 38 40 41 42 39 38 40 38 34 35 38 41 44 46 48 53 61 68 73 74 69 62 58 59 59 57 57 58 60 61 63 66 67 63 61 65 66 59 58 62 60 57 57 56 54 53 53 54 55 56 58 60 62 63 63 63
26 24 22 22 22 21 20 21 22 22 23 23 22 19 18 17 18 18 18 18 17 18 21 22 23 25 28 31 33 34 36 38 37 36 38 41 42 41 43 43 40 38 39 41 43 43 45 49 53 57 63 69 74 73 69 67 66 63 60 58 59 60 61 63 63 61 60 63 61 57 58 60 58 57 58 57 56 55 55 57 58 58 60 62 63 63 63 62
29 25 23 22 23 23 21 21 23 23 23 24 23 20 19 18 17 18 19 20 19 19 21 21 21 27 31 32 35 36 35 37 36 33 35 39 42 42 44 45 44 42 42 42 43 43 44 46 49 51 55 59 63 69 74 76 74 71 67 64 61 61 61 61 62 61 60 61 60 58 60 59 57 58 59 59 58 57 58 59 59 59 59 60 61 61 61 61
32 29 25 22 21 24 24 22 23 23 23 25 25 21 20 19 18 19 19 21 21 21 21 22 23 29 33 34 35 33 30 33 35 33 35 39 42 43 44 46 46 46 46 45 43 43 43 43 46 48 53 57 56 58 66 72 75 77 76 72 67 64 63 63 62 60 60 60 59 59 62 61 56 54 56 58 59 58 59 59 58 57 56 56 57 58 58 60
35 32 29 24 20 22 25 24 23 24 23 25 26 23 21 20 20 21 19 18 19 19 20 22 23 26 31 33 32 30 29 32 34 35 38 41 43 44 45 46 46 47 48 48 46 44 41 42 44 44 47 52 55 57 59 61 67 75 78 76 72 67 62 61 62 62 61 60 61 63 64 60 54 52 54 57 59 59 59 58 57 55 54 55 57 57 59 61
Wind_Direction
272 270 267 263 260 257 253 250 247 245 244 242 240 238 237 235 235 237 238 237 236 235 233 231 230 229 228 227 226 224 223 223 222 222 221 221 222 222 221 222 221 219 219 220 222 222 221 222 223 222 222 223 223 224 225 224 225 228 228 227 227 226 227 231 233 231 229 231 231 228 224 221 220 222 226 228 226 227 228 226 227 227 227 231 231 232 234 232
273 271 268 265 263 260 256 252 249 246 244 243 241 239 237 235 234 234 235 237 237 236 234 232 230 230 229 228 227 225 224 223 222 221 220 221 222 222 221 222 222 220 220 220 221 222 222 221 222 223 222 223 223 224 225 225 224 227 229 228 227 225 226 228 232 231 229 229 229 228 226 222 220 220 224 229 229 228 228 227 226 227 226 227 230 231 232 232
274 272 270 267 265 262 258 254 251 248 245 242 241 239 237 235 234 232 233 234 236 236 235 233 231 230 230 229 227 226 225 223 221 220 221 222 222 222 222 222 222 221 219 220 221 222 222 221 222 223 224 223 222 223 224 225 225 225 228 228 225 223 224 226 230 232 229 228 228 227 227 224 221 220 222 227 230 230 229 227 228 228 226 226 228 229 230 230
275 273 271 269 266 263 260 256 252 248 245 242 240 239 238 236 234 232 231 231 233 235 235 234 232 231 230 229 229 227 226 224 221 220 222 222 221 222 223 223 222 221 219 220 221 222 223 222 222 222 224 224 222 223 224 225 226 226 227 228 225 223 224 225 228 230 229 228 227 226 226 225 224 221 221 224 228 232 230 228 230 231 228 227 227 228 229 229
278 276 274 271 267 264 260 257 253 249 246 243 240 239 238 236 234 232 231 229 230 232 234 234 233 232 231 230 230 228 227 225 221 221 223 222 222 222 223 223 222 221 220 220 221 222 223 223 223 223 224 225 223 223 224 224 226 227 227 226 224 223 224 225 227 229 229 228 227 226 225 225 225 222 222 222 225 231 231 228 232 233 231 229 228 228 229 229
283 280 278 274 269 264 260 256 252 248 245 243 240 238 236 236 234 232 231 229 228 229 231 233 233 232 231 231 230 229 227 225 221 222 223 222 222 222 223 223 222 221 221 221 220 221 223 223 224 224 224 225 225 225 225 225 226 228 227 225 223 224 225 225 227 230 230 229 228 227 225 225 225 223 222 221 223 229 230 229 231 234 235 232 230 230 230 231
288 285 282 277 272 266 259 254 251 247 244 241 239 237 235 235 234 233 231 229 228 227 228 230 232 232 231 231 231 229 226 224 222 223 223 223 223 222 223 223 222 222 221 221 221 221 222 224 224 224 225 226 226 226 226 226 227 228 227 225 223 223 224 226 228 230 231 231 229 227 226 226 226 224 222 220 222 227 228 229 231 233 237 236 233 232 232 232
292 289 285 280 274 267 260 253 248 245 242 240 238 236 234 233 233 233 231 229 228 226 226 227 230 231 231 231 231 230 225 222 224 225 224 224 223 223 223 224 223 222 221 221 221 222 222 223 224 224 225 226 226 227 227 227 228 228 227 226 224 223 224 226 228 230 231 232 232 230 228 228 228 227 223 220 222 226 226 227 230 232 236 239 238 235 235 234
294 290 285 281 276 269 261 253 247 243 240 238 236 234 233 232 231 232 231 230 228 226 225 225 226 228 230 230 230 230 225 222 225 226 224 224 224 224 224 224 224 222 222 221 221 222 222 222 224 224 225 226 226 227 227 228 229 228 228 227 226 225 224 226 228 230 231 232 234 233 231 229 229 229 225 221 223 226 226 226 228 231 234 238 240 239 238 237
294 289 284 278 275 273 266 256 248 242 238 236 234 233 231 230 229 229 230 230 228 227 226 225 224 225 228 229 230 229 224 222 225 226 225 223 223 225 225 225 225 224 223 222 221 222 222 223 224 225 225 225 226 227 227 228 229 228 228 228 227 226 224 225 227 229 230 231 233 234 233 231 230 229 226 222 225 227 226 227 227 229 231 235 239 240 240 239
292 286 280 272 273 277 273 263 252 244 239 235 233 232 230 229 228 227 228 228 228 227 226 225 224 224 225 227 229 228 224 224 225 226 227 225 223 224 225 225 225 225 224 223 222 222 223 223 224 225 225 225 225 226 227 228 229 229 229 228 228 226 225 225 226 228 230 231 232 234 234 234 232 230 226 223 227 229 227 228 228 228 230 233 236 238 240 241
289 283 274 267 271 276 275 270 259 249 242 237 234 232 230 228 227 226 226 227 227 227 226 225 225 224 224 225 228 228 226 226 225 225 227 226 225 224 225 225 225 225 225 224 223 223 223 223 224 225 225 225 225 226 227 227 229 229 229 229 229 228 226 225 226 227 229 231 231 233 234 234 235 233 227 225 229 229 227 227 229 229 230 231 233 235 236 239
286 280 271 266 269 271 271 270 265 256 247 243 237 232 229 228 227 225 224 224 226 226 225 225 225 225 224 223 225 227 227 226 226 226 226 227 227 225 224 225 225 226 225 225 225 224 224 223 224 225 225 225 225 226 226 227 229 229 230 230 230 229 228 226 227 228 229 231 231 233 235 234 236 235 228 226 229 230 227 226 228 228 229 230 232 233 234 236
279 275 271 269 269 270 269 268 267 262 253 247 242 236 231 228 227 225 224 223 223 225 225 225 225 226 225 222 222 225 227 227 226 226 226 227 227 227 226 224 225 226 226 225 225 225 225 224 224 224 225 225 224 225 226 227 227 229 230 230 230 229 228 226 227 229 230 231 231 234 237 235 234 234 229 228 230 230 229 227 227 228 229 231 232 233 234 235
269 268 268 268 269 269 268 267 265 263 257 250 246 241 233 229 227 225 224 223 222 223 224 225 224 226 226 222 219 221 225 227 227 226 226 227 227 228 227 226 225 225 226 226 225 225 225 225 225 225 225 225 225 224 225 226 226 227 229 228 229 229 228 227 227 229 231 232 232 234 237 235 233 233 231 230 231 232 232 229 228 228 228 231 233 234 235 235
261 259 263 266 268 268 267 267 265 263 260 251 248 244 235 231 228 225 224 223 222 222 222 223 223 225 226 222 219 220 222 225 227 227 226 227 227 227 228 227 226 225 226 227 226 225 225 226 226 225 225 225 226 225 225 226 226 226 227 228 228 229 229 228 227 228 231 232 232 233 236 236 233 232 231 231 232 234 234 231 229 230 229 229 231 233 234 236
258 255 259 264 267 270 268 269 270 266 262 255 252 248 239 235 230 225 224 223 223 221 220 221 222 224 225 221 219 219 220 223 226 227 226 226 227 227 228 228 227 226 226 227 227 227 226 226 226 226 225 225 226 226 225 225 224 224 226 227 228 228 229 229 227 227 230 231 232 233 236 237 234 231 231 232 233 235 236 234 231 231 231 230 230 231 233 235
261 255 255 260 264 269 269 269 274 271 264 257 251 245 238 237 232 226 223 223 224 221 218 220 220 222 224 221 220 219 219 221 224 225 225 226 227 227 227 228 228 227 226 226 227 228 227 226 227 226 226 225 225 226 226 224 224 225 227 228 229 229 228 229 228 226 229 232 233 234 235 238 236 232 231 232 233 235 237 236 234 233 233 232 232 232 233 235
263 258 255 259 264 269 269 268 273 272 266 253 245 239 234 237 237 231 226 224 225 223 220 220 221 223 223 222 221 221 220 221 223 224 224 225 226 226 227 227 228 228 226 226 227 228 228 227 227 227 226 225 225 227 227 227 227 227 229 231 232 233 231 231 231 228 228 232 234 236 237 238 238 234 231 233 234 235 237 238 236 234 234 234 234 234 234 235
264 262 256 260 268 272 270 268 270 270 264 252 246 240 235 238 239 235 229 226 226 225 222 221 222 223 222 221 221 221 220 221 224 224 222 223 225 225 226 226 227 228 227 226 227 228 229 228 228 227 226 226 227 228 230 230 229 228 230 232 232 234 234 233 234 232 231 234 236 237 239 240 241 237 232 233 234 235 236 238 238 236 236 236 236 236 236 236
261 263 259 261 268 270 269 270 268 264 259 251 249 243 236 236 235 231 228 226 227 226 223 221 220 220 220 220 220 220 220 221 224 225 222 221 223 225 225 225 226 227 227 227 227 228 229 229 229 227 227 228 229 230 231 231 230 230 231 232 233 235 235 234 234 234 233 234 236 237 239 241 241 238 232 231 234 235 235 238 239 238 237 237 237 237 237 237
253 256 259 261 263 264 265 269 264 258 255 248 245 241 236 234 233 230 227 226 227 226 224 221 220 219 218 219 219 219 220 221 224 225 223 220 221 224 225 225 226 226 227 227 227 227 228 229 228 228 228 229 230 230 231 232 231 231 232 232 233 234 236 235 235 235 234 234 235 236 237 238 239 238 232 228 230 233 234 235 238 239 239 238 239 239 239 239
256 250 255 261 261 261 263 266 261 258 256 252 249 245 241 237 234 234 232 230 229 228 226 223 220 218 218 219 220 220 220 221 223 224 223 222 221 223 224 225 226 226 226 227 227 228 229 229 228 228 229 229 230 230 231 231 231 231 231 231 232 233 235 236 235 236 236 235 236 237 238 237 238 238 234 229 228 230 233 233 236 238 239 239 240 241 241 241
261 254 255 263 266 264 262 262 263 266 265 262 259 255 251 243 237 236 236 235 231 228 228 225 221 218 217 218 219 220 220 220 222 222 223 223 222 222 223 224 225 225 226 227 228 229 230 229 228 229 229 229 231 231 231 231 231 231 231 231 232 233 235 236 237 237 237 237 236 238 239 237 236 237 236 232 229 229 231 233 234 236 238 239 240 240 241 241
264 263 260 267 273 269 266 265 268 274 275 273 269 265 262 254 245 240 239 239 233 229 229 227 223 218 217 218 218 219 220 220 222 222 222 223 222 222 223 223 224 225 226 227 228 229 229 228 228 229 229 230 232 232 231 232 233 233 233 233 233 234 236 237 238 238 239 239 237 238 241 238 234 236 237 234 232 230 229 232 233 234 236 238 239 239 240 241
277 277 274 275 275 271 271 274 277 278 277 278 279 276 271 264 254 246 245 244 236 230 230 229 225 220 218 219 219 219 221 221 221 222 222 222 222 222 222 223 223 224 226 227 228 228 228 227 228 228 229 230 231 232 232 233 234 235 234 235 235 236 237 238 239 240 240 241 239 239 242 239 235 235 236 235 235 232 230 231 233 234 235 238 239 239 240 241
286 286 289 285 280 274 274 279 284 283 279 283 285 283 278 269 257 247 246 247 240 231 230 230 226 221 219 220 219 220 222 221 221 222 222 222 222 221 222 223 223 223 224 225 227 227 227 227 228 229 229 230 231 232 232 233 234 235 234 235 237 237 238 239 240 241 241 242 242 240 241 241 237 234 235 236 237 237 234 232 234 236 237 238 240 240 240 242
290 286 284 284 284 284 285 285 285 284 284 291 291 285 281 275 263 251 247 246 241 233 232 233 229 222 218 220 219 220 222 221 221 223 223 223 223 222 222 222 223 224 223 225 228 228 227 228 228 229 230 231 231 232 232 233 234 235 235 235 236 237 239 240 241 241 242 243 244 241 241 242 239 235 235 236 237 239 239 235 235 237 239 239 241 242 241 242
303 289 278 284 288 291 298 296 292 291 295 299 295 287 279 271 262 252 248 245 236 231 230 233 234 227 221 221 221 221 222 220 220 222 222 223 223 221 222 223 224 225 224 224 227 226 225 226 227 228 230 230 231 232 232 233 234 235 236 237 236 238 240 241 241 241 242 244 244 241 240 242 241 237 237 237 236 240 242 239 236 236 240 241 240 242 242 243
331 312 296 295 297 304 310 304 301 303 301 300 295 287 276 267 259 250 248 244 233 229 225 225 231 229 224 223 222 222 222 220 219 219 220 221 223 222 222 222 223 225 225 224 224 224 223 224 225 226 228 229 230 231 231 233 234 235 236 237 236 237 239 241 242 242 244 244 242 240 241 243 243 239 237 238 237 238 241 242 238 235 238 241 242 241 242 243
346 330 317 316 314 318 321 312 307 306 301 296 289 279 271 266 259 251 249 245 235 229 223 221 224 224 223 223 222 223 224 222 220 219 219 220 221 221 220 220 220 221 223 223 223 223 223 223 223 225 227 228 228 229 230 231 232 233 234 235 236 238 238 240 241 241 243 243 241 240 242 244 244 239 238 239 238 238 240 242 241 238 237 239 242 243 243 244
343 330 322 328 319 313 321 319 311 306 300 292 284 275 269 266 261 255 254 251 241 231 224 222 221 218 221 222 221 222 223 224 222 220 220 220 220 221 219 218 219 220 221 223 222 223 225 225 225 225 225 226 227 228 228 229 231 231 231 233 235 236 237 238 239 240 243 243 241 242 243 244 244 240 239 240 238 238 239 242 243 241 239 238 240 243 243 244
321 313 305 309 312 314 323 325 318 309 299 288 278 267 260 261 264 263 258 252 247 240 231 227 223 218 222 225 222 222 222 224 223 221 222 221 220 221 219 218 219 221 223 225 224 225 226 226 227 226 224 225 226 227 228 229 231 231 231 232 233 234 235 237 238 240 243 243 242 243 243 244 244 241 241 241 240 239 238 242 244 242 241 240 239 241 243 244
292 294 295 301 313 321 325 326 322 313 301 289 275 258 253 261 270 269 261 253 250 246 236 230 224 218 221 227 227 226 225 224 222 221 222 223 222 220 218 217 217 220 223 225 226 226 227 226 227 228 227 226 226 228 229 230 232 232 233 233 234 235 236 237 239 241 243 243 243 243 243 244 243 242 242 241 241 241 239 241 244 243 243 242 241 242 243 245
285 291 296 300 309 317 321 324 323 315 308 297 277 264 265 274 277 270 263 255 249 246 239 234 227 220 220 222 225 228 229 227 224 221 221 223 224 222 220 218 217 218 220 223 224 226 229 231 231 232 231 229 228 230 230 231 232 232 232 233 234 236 238 239 240 241 243 244 244 243 244 245 245 243 243 243 243 244 242 241 244 245 245 245 245 245 245 246
284 291 297 302 308 314 319 322 320 314 311 302 286 280 284 284 274 265 257 250 247 246 243 238 232 226 222 221 223 229 232 231 227 223 222 224 224 222 220 219 218 218 219 221 223 224 228 232 233 232 232 230 229 230 232 233 234 233 233 233 234 236 238 239 241 241 242 244 244 244 244 245 246 244 244 244 245 245 245 244 244 246 248 248 248 248 247 247
287 294 300 304 309 314 318 320 315 312 312 307 300 296 288 273 262 256 249 245 244 244 243 240 236 231 225 222 225 227 227 230 229 226 225 226 226 223 220 218 218 218 220 222 224 224 225 230 232 231 233 234 231 230 231 233 234 234 236 236 236 237 238 239 241 242 243 245 244 244 244 245 246 245 243 243 245 247 248 246 245 245 248 250 250 250 249 248
287 294 299 303 308 313 316 315 310 310 314 314 309 300 282 266 255 248 243 241 240 241 240 239 238 235 229 225 226 227 224 219 222 227 228 230 229 225 223 221 218 217 218 221 225 226 226 229 231 232 233 234 233 231 231 231 231 233 235 235 235 236 237 237 239 241 243 245 245 245 245 245 246 246 245 244 246 248 250 250 249 247 247 249 251 252 252 251
292 294 298 302 308 312 313 311 309 312 316 319 314 296 282 274 260 249 245 241 239 240 239 236 236 236 231 224 221 225 225 218 216 222 227 231 230 227 226 225 221 217 216 220 224 225 227 229 229 229 230 230 230 230 230 229 230 232 232 232 232 234 236 237 240 242 243 246 247 247 246 246 246 247 247 247 247 248 250 252 252 251 248 247 249 251 253 253
313 306 305 306 310 315 313 310 313 317 320 322 315 294 281 276 265 253 247 242 239 240 239 236 235 235 232 225 220 222 222 218 219 221 223 228 229 227 227 226 224 220 216 218 220 221 226 229 227 226 227 227 227 229 231 231 232 233 232 231 232 233 234 236 237 239 241 244 247 248 247 247 247 247 247 247 247 247 248 249 251 252 250 248 248 249 250 251
327 320 315 312 313 317 315 313 317 323 327 326 318 301 283 273 264 252 245 242 239 240 240 237 235 235 234 230 226 227 224 217 217 222 222 222 224 224 225 225 225 222 218 218 218 217 222 228 230 229 228 227 228 231 234 235 235 236 236 236 237 237 238 238 238 238 239 242 244 246 248 247 246 246 246 245 246 247 247 248 250 253 254 252 250 249 249 249
327 325 318 311 313 316 314 313 317 325 330 327 320 311 290 274 263 250 243 242 241 240 239 238 236 235 236 235 233 235 234 226 222 225 223 221 222 221 220 222 224 223 221 220 218 215 219 226 229 232 232 231 230 230 231 233 234 235 237 237 238 240 241 242 243 242 243 246 247 249 250 249 247 247 248 248 247 248 249 250 251 253 254 255 253 251 249 247
326 325 319 309 311 316 315 312 313 322 329 326 320 316 300 281 267 253 245 242 241 241 240 239 237 236 236 238 237 239 241 237 233 232 228 223 221 217 216 220 224 225 225 223 218 216 219 224 225 229 232 233 232 230 229 231 233 233 234 235 235 237 238 240 243 243 244 246 247 250 251 249 247 248 250 250 250 249 250 250 250 251 252 253 253 251 249 246
330 324 320 312 309 313 316 315 312 317 325 325 320 316 308 294 276 261 253 248 245 244 243 241 239 237 236 238 239 240 242 242 240 239 237 230 219 213 212 214 219 223 225 224 221 220 221 224 224 225 227 229 231 231 230 230 232 233 233 235 237 239 239 239 241 241 242 244 244 247 249 248 246 246 247 247 247 247 246 247 248 249 249 250 250 249 247 244
339 329 321 313 308 310 315 317 313 312 317 319 320 317 312 305 290 273 262 257 252 248 246 245 242 240 237 237 240 241 242 243 242 242 243 236 221 212 210 209 213 218 220 221 223 224 225 225 226 227 227 224 225 228 229 230 233 235 235 236 238 239 238 238 239 241 243 244 244 246 247 247 246 246 247 247 247 246 245 245 246 247 248 247 247 248 247 246
347 341 329 314 306 306 309 313 314 313 312 313 317 316 309 305 300 287 274 266 261 255 250 246 244 243 240 238 240 242 243 244 245 244 244 239 228 217 214 216 217 216 216 217 218 223 228 228 228 230 231 228 224 225 227 229 232 235 236 237 238 239 240 240 242 244 245 247 248 249 251 251 247 245 247 249 250 249 248 247 246 247 249 249 248 249 249 249
347 347 340 325 310 303 301 304 309 312 313 312 314 313 305 299 297 294 288 278 269 263 257 250 246 244 243 240 240 241 243 244 246 245 243 240 235 227 225 226 224 218 216 216 217 220 226 228 228 231 233 233 229 227 227 228 230 232 234 236 238 240 242 242 244 246 247 249 250 251 253 253 249 244 245 249 251 250 249 248 247 248 249 251 250 250 250 250
345 345 343 334 321 309 302 300 302 307 311 312 311 310 305 299 293 289 288 285 277 272 266 259 252 248 246 243 240 241 242 244 245 245 244 242 241 238 236 233 228 225 224 220 219 222 225 226 227 229 233 234 233 231 231 233 233 232 233 235 237 239 241 242 245 246 247 249 252 253 253 254 251 245 241 243 247 249 247 247 246 245 246 248 249 249 249 249
343 343 342 336 325 317 311 304 299 301 306 309 312 309 303 299 292 283 280 281 283 281 276 269 259 250 246 243 240 239 240 243 246 246 244 244 244 244 243 239 234 235 235 228 224 226 227 224 224 228 232 233 234 233 235 238 238 236 236 236 235 236 238 240 242 244 245 247 250 251 250 251 250 244 238 237 241 244 244 244 244 243 243 245 247 249 249 250
342 341 341 337 326 318 315 309 301 298 299 302 307 307 301 295 289 282 278 278 281 285 288 287 270 252 245 242 241 239 238 242 247 246 244 245 245 246 246 244 241 240 240 235 230 231 231 223 220 227 232 233 233 234 235 238 240 240 239 237 236 237 237 238 239 240 242 245 247 247 247 247 245 242 238 235 237 241 242 243 244 244 244 245 248 250 251 253
341 340 340 340 331 319 317 315 306 299 295 294 297 302 301 297 289 284 281 279 279 280 284 288 276 256 248 244 244 243 241 243 245 244 243 244 243 244 244 244 244 244 243 240 235 233 234 228 220 225 233 233 231 232 233 236 239 241 240 238 237 238 238 238 239 239 241 245 247 247 248 248 247 246 243 239 238 241 242 242 243 245 246 247 249 250 252 253
338 338 338 341 338 321 316 318 312 303 297 291 290 293 298 299 291 285 284 281 276 274 276 281 279 266 254 247 246 245 242 242 241 239 240 241 241 243 243 243 245 247 245 244 240 235 235 232 224 226 234 233 230 231 233 235 239 242 241 240 239 239 238 238 238 239 240 244 246 247 248 250 250 249 248 243 240 241 243 243 245 246 247 247 247 247 248 249
Height
5651 5651 5651 5651 5651 5652 5653 5654 5656 5659 5661 5664 5668 5671 5676 5680 5686 5691 5696 5701 5705 5709 5713 5718 5723 5727 5731 5735 5739 5743 5747 5751 5755 5760 5767 5774 5774 5777 5781 5783 5787 5792 5796 5798 5800 5803 5807 5810 5813 5816 5818 5820 5822 5825 5827 5829 5832 5833 5834 5836 5839 5843 5846 5848 5849 5850 5851 5852 5853 5855 5856 5857 5859 5860 5860 5860 5861 5862 5863 5863 5864 5865 5866 5866 5867 5868 5868 5869
5644 5644 5643 5643 5643 5644 5645 5646 5647 5649 5652 5655 5659 5662 5666 5671 5676 5681 5687 5693 5697 5701 5705 5711 5715 5720 5724 5728 5732 5736 5741 5745 5748 5756 5764 5766 5767 5771 5775 5777 5782 5787 5791 5793 5795 5798 5802 5805 5808 5811 5813 5815 5818 5821 5822 5825 5827 5829 5831 5833 5837 5841 5844 5845 5844 5846 5848 5849 5850 5852 5854 5855 5856 5857 5858 5858 5859 5860 5861 5862 5862 5863 5864 5865 5865 5866 5867 5868
5637 5636 5636 5635 5635 5635 5636 5637 5639 5640 5643 5646 5650 5654 5657 5661 5666 5671 5677 5683 5689 5693 5698 5703 5708 5713 5717 5721 5725 5729 5734 5737 5743 5752 5757 5758 5761 5766 5768 5772 5776 5780 5785 5788 5790 5793 5796 5800 5803 5805 5807 5810 5813 5816 5818 5820 5823 5825 5826 5829 5834 5839 5840 5840 5841 5842 5845 5846 5848 5849 5851 5852 5853 5855 5856 5856 5857 5857 5858 5860 5861 5861 5862 5863 5864 5865 5865 5866
5630 5628 5627 5627 5626 5626 5627 5628 5629 5631 5633 5636 5640 5644 5648 5652 5657 5662 5667 5673 5679 5685 5690 5695 5700 5705 5710 5714 5718 5722 5727 5730 5738 5747 5749 5752 5756 5759 5763 5767 5770 5775 5780 5782 5785 5788 5791 5795 5798 5800 5802 5804 5808 5811 5812 5815 5818 5820 5822 5826 5833 5835 5835 5836 5837 5838 5841 5842 5844 5846 5848 5849 5850 5852 5853 5854 5855 5855 5856 5858 5858 5859 5860 5861 5862 5863 5864 5865
5622 5620 5618 5617 5616 5616 5616 5618 5620 5622 5624 5627 5631 5635 5639 5643 5647 5652 5658 5664 5670 5676 5682 5687 5692 5697 5702 5707 5710 5714 5719 5723 5733 5740 5741 5746 5750 5753 5757 5760 5764 5769 5773 5776 5779 5783 5786 5789 5792 5795 5797 5799 5803 5805 5807 5811 5813 5815 5819 5824 5829 5830 5830 5833 5833 5834 5836 5839 5841 5843 5845 5846 5847 5849 5850 5851 5852 5852 5853 5856 5856 5857 5858 5859 5860 5861 5862 5863
5614 5611 5608 5606 5605 5605 5605 5606 5609 5612 5614 5618 5621 5625 5630 5634 5639 5643 5648 5655 5660 5666 5673 5678 5685 5689 5694 5699 5701 5705 5710 5717 5726 5731 5734 5739 5743 5748 5751 5753 5758 5763 5766 5770 5774 5777 5780 5783 5787 5789 5792 5795 5798 5801 5804 5808 5809 5811 5814 5820 5824 5825 5827 5829 5829 5829 5831 5835 5838 5840 5841 5842 5843 5845 5847 5849 5850 5849 5851 5853 5854 5854 5855 5857 5858 5859 5861 5861
5605 5602 5598 5595 5593 5593 5593 5595 5597 5601 5604 5608 5611 5616 5620 5625 5630 5635 5640 5646 5651 5657 5663 5670 5676 5680 5686 5690 5691 5694 5701 5712 5720 5723 5728 5733 5737 5742 5744 5747 5752 5755 5760 5764 5768 5772 5775 5778 5782 5785 5788 5790 5793 5796 5800 5803 5804 5805 5810 5815 5819 5821 5823 5824 5825 5825 5827 5830 5833 5835 5837 5839 5841 5842 5844 5846 5847 5846 5849 5851 5851 5853 5853 5854 5856 5857 5859 5860
5595 5592 5588 5584 5582 5581 5582 5583 5586 5589 5593 5597 5602 5607 5611 5616 5621 5627 5632 5636 5642 5648 5653 5660 5667 5672 5676 5679 5682 5686 5695 5709 5714 5715 5720 5726 5732 5736 5738 5741 5745 5749 5754 5758 5762 5766 5769 5772 5776 5780 5782 5785 5788 5792 5795 5798 5798 5800 5805 5810 5814 5817 5819 5820 5820 5821 5823 5825 5828 5831 5834 5836 5838 5839 5841 5844 5844 5844 5846 5848 5849 5850 5851 5852 5854 5855 5857 5858
5585 5582 5579 5575 5573 5571 5571 5573 5575 5579 5583 5587 5592 5597 5602 5607 5613 5618 5623 5629 5634 5639 5645 5651 5656 5661 5666 5669 5673 5677 5690 5704 5706 5706 5712 5720 5725 5728 5732 5735 5738 5743 5748 5752 5756 5759 5763 5767 5770 5774 5776 5779 5783 5786 5790 5791 5792 5796 5801 5806 5809 5812 5815 5815 5816 5817 5819 5821 5823 5826 5830 5832 5834 5835 5838 5841 5841 5841 5844 5846 5847 5848 5849 5849 5851 5853 5855 5856
5575 5572 5570 5568 5566 5564 5564 5564 5566 5569 5573 5577 5582 5587 5592 5598 5604 5609 5615 5621 5626 5631 5637 5641 5646 5651 5655 5660 5664 5672 5687 5696 5698 5701 5705 5712 5718 5721 5725 5729 5733 5737 5741 5746 5750 5754 5758 5762 5764 5767 5770 5773 5777 5780 5783 5784 5786 5790 5796 5800 5803 5806 5809 5810 5811 5813 5814 5817 5818 5821 5825 5827 5829 5830 5834 5839 5839 5839 5842 5843 5844 5845 5846 5847 5848 5850 5852 5853
5566 5564 5563 5562 5561 5559 5559 5559 5560 5562 5565 5569 5574 5578 5584 5589 5595 5600 5607 5612 5617 5623 5628 5632 5637 5640 5645 5650 5655 5668 5682 5686 5691 5696 5698 5704 5711 5714 5718 5722 5727 5731 5735 5740 5744 5749 5752 5755 5757 5760 5763 5767 5771 5774 5777 5779 5781 5786 5791 5793 5795 5799 5802 5804 5806 5808 5810 5812 5814 5817 5819 5821 5822 5825 5832 5837 5836 5837 5839 5840 5841 5843 5844 5845 5846 5847 5849 5850
5559 5558 5557 5557 5556 5555 5555 5556 5556 5557 5559 5562 5566 5571 5576 5581 5586 5592 5598 5604 5610 5615 5620 5624 5627 5631 5636 5640 5650 5667 5675 5679 5685 5688 5691 5697 5703 5707 5711 5715 5720 5724 5729 5733 5738 5742 5745 5748 5751 5754 5757 5761 5765 5768 5770 5774 5776 5780 5785 5786 5789 5793 5796 5799 5802 5804 5805 5806 5810 5812 5812 5813 5816 5822 5832 5834 5832 5834 5836 5837 5838 5840 5841 5842 5843 5844 5846 5846
5553 5553 5553 5553 5553 5552 5552 5552 5553 5553 5555 5557 5560 5564 5568 5573 5578 5584 5590 5597 5602 5607 5612 5615 5618 5625 5626 5631 5649 5664 5666 5673 5678 5680 5685 5690 5693 5699 5704 5708 5712 5717 5722 5727 5731 5735 5738 5742 5745 5748 5752 5755 5759 5761 5765 5769 5770 5774 5778 5780 5783 5786 5789 5794 5797 5799 5800 5801 5806 5806 5804 5808 5812 5819 5828 5829 5828 5829 5831 5834 5835 5836 5838 5838 5840 5841 5843 5843
5549 5549 5550 5550 5550 5549 5548 5548 5549 5550 5551 5553 5555 5558 5562 5566 5571 5576 5583 5589 5594 5599 5604 5608 5614 5617 5616 5628 5647 5653 5657 5666 5668 5671 5678 5682 5687 5692 5697 5702 5707 5710 5715 5719 5724 5728 5732 5735 5739 5742 5744 5748 5752 5755 5759 5761 5765 5769 5771 5772 5776 5780 5784 5790 5793 5794 5795 5796 5801 5801 5797 5803 5809 5813 5821 5823 5823 5824 5826 5830 5832 5833 5835 5835 5837 5838 5839 5841
5545 5544 5545 5546 5546 5546 5546 5546 5546 5547 5548 5550 5552 5554 5557 5561 5565 5570 5575 5581 5587 5592 5598 5603 5609 5608 5610 5625 5638 5642 5651 5656 5657 5664 5671 5676 5681 5686 5690 5696 5701 5705 5708 5712 5717 5721 5725 5728 5732 5735 5738 5742 5745 5748 5751 5754 5759 5762 5762 5766 5770 5774 5778 5783 5787 5789 5790 5793 5796 5795 5791 5796 5803 5808 5815 5818 5818 5819 5822 5826 5828 5830 5832 5833 5834 5835 5836 5837
5541 5540 5540 5541 5542 5543 5543 5543 5543 5544 5545 5547 5548 5550 5553 5555 5559 5564 5569 5575 5579 5584 5591 5596 5601 5600 5603 5618 5629 5634 5642 5646 5651 5658 5664 5670 5674 5680 5685 5688 5694 5699 5702 5705 5709 5713 5717 5720 5724 5728 5731 5734 5738 5742 5746 5747 5751 5754 5757 5761 5766 5769 5773 5778 5782 5784 5786 5787 5789 5788 5785 5789 5798 5804 5810 5812 5813 5814 5817 5822 5825 5826 5828 5829 5830 5832 5833 5833
5538 5538 5537 5537 5538 5539 5540 5541 5541 5542 5543 5544 5546 5548 5549 5550 5553 5557 5562 5567 5570 5576 5583 5587 5592 5592 5597 5611 5620 5626 5634 5641 5645 5649 5657 5664 5667 5674 5678 5681 5687 5692 5696 5698 5701 5705 5710 5713 5717 5721 5724 5727 5732 5735 5736 5739 5745 5752 5754 5757 5760 5764 5768 5772 5775 5778 5780 5780 5781 5781 5781 5783 5791 5800 5804 5807 5809 5810 5812 5816 5820 5822 5823 5825 5826 5827 5829 5830
5534 5535 5535 5535 5536 5537 5537 5538 5539 5539 5541 5543 5544 5544 5544 5545 5548 5551 5556 5560 5562 5568 5573 5577 5581 5584 5592 5606 5616 5623 5630 5635 5636 5641 5650 5656 5660 5666 5669 5674 5679 5683 5689 5692 5695 5698 5702 5706 5709 5712 5715 5719 5724 5726 5730 5738 5746 5750 5751 5754 5757 5759 5763 5764 5766 5771 5774 5774 5774 5775 5776 5778 5785 5796 5800 5802 5804 5805 5806 5810 5814 5817 5818 5820 5822 5823 5825 5827
5530 5532 5533 5533 5534 5534 5535 5536 5537 5537 5539 5540 5540 5540 5541 5542 5544 5547 5551 5554 5557 5562 5567 5572 5576 5583 5594 5606 5613 5619 5623 5626 5627 5632 5641 5648 5652 5657 5661 5666 5669 5674 5680 5684 5689 5691 5693 5698 5699 5701 5707 5715 5722 5726 5733 5741 5744 5747 5750 5752 5752 5752 5756 5759 5761 5768 5771 5770 5770 5771 5773 5774 5779 5790 5796 5798 5800 5801 5802 5804 5808 5811 5813 5815 5818 5820 5822 5823
5527 5528 5530 5531 5532 5532 5533 5534 5535 5536 5536 5537 5537 5537 5539 5540 5541 5544 5547 5550 5553 5557 5563 5568 5574 5582 5592 5601 5606 5610 5615 5618 5618 5622 5632 5640 5644 5648 5651 5656 5660 5665 5671 5678 5683 5684 5686 5688 5689 5697 5709 5718 5725 5728 5732 5734 5738 5743 5743 5742 5744 5745 5749 5755 5758 5763 5768 5767 5767 5769 5769 5770 5775 5783 5791 5794 5794 5796 5797 5798 5801 5805 5808 5811 5813 5816 5818 5819
5525 5526 5528 5529 5530 5530 5531 5532 5533 5534 5534 5535 5535 5535 5536 5536 5537 5539 5541 5544 5548 5550 5555 5561 5567 5574 5584 5592 5596 5601 5606 5609 5610 5615 5624 5631 5636 5639 5641 5646 5652 5657 5666 5674 5676 5676 5676 5677 5685 5701 5713 5718 5720 5723 5724 5726 5731 5735 5733 5735 5738 5739 5744 5750 5752 5757 5761 5761 5762 5764 5764 5765 5768 5775 5784 5788 5787 5790 5792 5793 5796 5800 5803 5806 5808 5810 5812 5815
5523 5524 5525 5527 5528 5528 5529 5530 5531 5532 5532 5532 5532 5533 5533 5533 5534 5536 5537 5539 5542 5545 5549 5554 5561 5569 5578 5584 5589 5593 5598 5602 5604 5608 5615 5623 5627 5630 5635 5641 5645 5653 5662 5664 5663 5666 5666 5671 5689 5704 5709 5710 5712 5715 5716 5718 5723 5724 5726 5730 5732 5735 5739 5742 5746 5751 5753 5755 5756 5756 5756 5758 5761 5766 5775 5780 5782 5784 5786 5789 5791 5794 5797 5801 5803 5805 5807 5810
5521 5522 5524 5525 5527 5527 5528 5529 5530 5530 5529 5530 5531 5531 5531 5531 5533 5534 5535 5537 5539 5541 5545 5550 5557 5565 5573 5577 5583 5587 5591 5595 5596 5600 5609 5616 5620 5625 5630 5635 5640 5648 5652 5651 5655 5658 5660 5674 5694 5699 5698 5701 5704 5705 5705 5708 5712 5714 5718 5723 5726 5731 5732 5734 5740 5743 5745 5748 5749 5749 5749 5751 5755 5759 5766 5773 5778 5779 5781 5785 5787 5789 5793 5796 5798 5800 5802 5805
5521 5522 5523 5525 5526 5527 5527 5528 5528 5528 5528 5529 5529 5529 5530 5531 5532 5533 5534 5535 5536 5539 5542 5545 5551 5559 5566 5571 5576 5580 5584 5588 5589 5595 5603 5608 5615 5620 5624 5629 5635 5640 5641 5645 5651 5653 5661 5678 5689 5688 5691 5695 5692 5691 5696 5700 5703 5709 5713 5717 5723 5726 5726 5729 5733 5735 5739 5740 5742 5744 5740 5741 5749 5752 5757 5767 5772 5774 5777 5781 5783 5785 5788 5791 5793 5795 5797 5799
5521 5522 5523 5525 5526 5526 5527 5527 5527 5527 5528 5528 5527 5527 5529 5530 5530 5531 5532 5531 5533 5536 5538 5541 5546 5555 5562 5564 5568 5572 5576 5581 5585 5592 5598 5603 5610 5614 5619 5624 5627 5630 5635 5641 5645 5648 5660 5672 5676 5680 5685 5684 5681 5684 5693 5698 5700 5705 5708 5713 5720 5721 5722 5724 5725 5729 5731 5730 5735 5738 5730 5732 5744 5746 5750 5760 5764 5768 5774 5775 5778 5781 5783 5785 5788 5790 5792 5794
5521 5522 5523 5524 5525 5526 5526 5526 5526 5527 5527 5526 5526 5527 5527 5528 5529 5530 5530 5528 5530 5534 5536 5539 5544 5551 5556 5558 5564 5570 5571 5575 5583 5588 5592 5598 5603 5608 5614 5617 5619 5625 5631 5637 5639 5642 5654 5664 5668 5673 5674 5673 5675 5680 5688 5694 5696 5698 5704 5711 5713 5714 5717 5718 5719 5722 5722 5722 5728 5728 5724 5727 5735 5738 5744 5752 5756 5763 5768 5770 5773 5777 5779 5781 5783 5785 5787 5788
5521 5522 5523 5524 5524 5525 5525 5525 5525 5525 5525 5525 5525 5526 5526 5527 5527 5528 5527 5526 5528 5532 5534 5536 5541 5547 5553 5555 5561 5563 5562 5572 5581 5582 5586 5594 5598 5603 5607 5609 5614 5619 5625 5629 5628 5633 5650 5659 5661 5664 5664 5666 5668 5674 5683 5689 5689 5692 5700 5703 5704 5709 5711 5710 5712 5713 5714 5717 5716 5717 5721 5720 5722 5733 5742 5745 5750 5756 5761 5766 5770 5772 5775 5776 5777 5780 5782 5783
5522 5522 5523 5523 5524 5524 5524 5525 5524 5524 5524 5524 5524 5524 5524 5525 5525 5525 5524 5523 5526 5530 5532 5534 5538 5543 5548 5550 5553 5555 5559 5571 5577 5578 5586 5591 5593 5597 5600 5604 5610 5614 5620 5622 5620 5634 5649 5653 5655 5659 5658 5657 5661 5670 5680 5682 5682 5687 5691 5693 5699 5704 5703 5702 5704 5705 5708 5706 5701 5708 5718 5713 5715 5731 5738 5740 5746 5748 5753 5762 5767 5768 5770 5771 5773 5775 5777 5778
5522 5522 5523 5523 5523 5523 5524 5524 5523 5523 5523 5523 5522 5522 5522 5523 5522 5522 5520 5521 5526 5529 5531 5533 5535 5540 5545 5546 5549 5552 5556 5564 5569 5574 5582 5583 5584 5590 5593 5601 5608 5610 5615 5616 5619 5632 5639 5641 5646 5648 5645 5648 5657 5667 5673 5675 5677 5682 5684 5688 5696 5696 5692 5694 5694 5697 5698 5690 5689 5703 5712 5709 5712 5725 5731 5735 5741 5744 5748 5756 5761 5764 5764 5765 5769 5770 5772 5774
5522 5522 5522 5522 5522 5523 5523 5523 5522 5522 5522 5521 5520 5520 5520 5519 5520 5519 5517 5520 5525 5528 5530 5532 5533 5537 5540 5543 5546 5548 5551 5557 5563 5568 5572 5573 5579 5586 5590 5597 5602 5604 5608 5609 5614 5622 5626 5631 5633 5632 5635 5644 5653 5661 5667 5670 5671 5675 5677 5681 5686 5685 5684 5686 5685 5690 5686 5675 5684 5701 5708 5707 5705 5714 5725 5730 5736 5741 5743 5747 5753 5759 5759 5759 5762 5764 5766 5768
5522 5522 5522 5522 5522 5522 5522 5522 5521 5520 5520 5519 5519 5518 5516 5516 5517 5516 5517 5521 5524 5526 5527 5529 5531 5533 5535 5538 5541 5544 5547 5552 5556 5560 5564 5568 5574 5578 5583 5590 5593 5597 5601 5602 5608 5615 5618 5620 5621 5625 5632 5640 5647 5653 5657 5659 5659 5664 5669 5673 5676 5675 5677 5677 5676 5679 5670 5667 5687 5700 5703 5699 5693 5706 5721 5724 5730 5736 5737 5739 5744 5751 5754 5754 5756 5758 5761 5761
5522 5522 5521 5521 5521 5521 5521 5520 5519 5518 5517 5516 5515 5515 5514 5513 5513 5515 5518 5521 5522 5522 5525 5527 5528 5531 5533 5534 5536 5539 5542 5545 5549 5555 5560 5564 5566 5570 5577 5582 5586 5591 5593 5595 5603 5609 5609 5612 5616 5622 5627 5633 5639 5643 5646 5647 5647 5654 5661 5664 5664 5664 5666 5666 5665 5667 5661 5670 5690 5695 5693 5686 5683 5701 5714 5716 5725 5730 5731 5734 5737 5743 5747 5749 5751 5752 5754 5755
5522 5522 5521 5521 5521 5520 5519 5519 5517 5516 5514 5512 5512 5513 5512 5510 5511 5515 5517 5519 5520 5521 5524 5526 5527 5530 5531 5532 5534 5536 5537 5539 5544 5550 5555 5558 5561 5565 5572 5578 5584 5587 5589 5594 5601 5602 5602 5606 5610 5612 5618 5625 5631 5633 5635 5638 5641 5647 5652 5654 5654 5653 5655 5655 5658 5660 5659 5671 5683 5682 5680 5672 5674 5696 5707 5710 5717 5721 5727 5730 5728 5735 5739 5742 5746 5746 5747 5749
5522 5521 5521 5520 5519 5519 5518 5516 5514 5513 5511 5509 5509 5510 5510 5509 5511 5514 5515 5517 5519 5519 5522 5523 5525 5528 5529 5530 5532 5533 5534 5536 5540 5545 5549 5551 5553 5558 5565 5571 5577 5582 5587 5591 5594 5595 5597 5598 5599 5605 5614 5622 5626 5627 5631 5636 5638 5642 5647 5649 5646 5645 5649 5652 5656 5657 5657 5666 5669 5665 5665 5660 5670 5694 5700 5701 5709 5714 5723 5725 5720 5727 5732 5734 5739 5741 5742 5743
5521 5520 5520 5519 5518 5517 5516 5514 5512 5511 5509 5508 5507 5507 5508 5509 5511 5512 5513 5516 5517 5517 5519 5520 5522 5524 5525 5527 5529 5530 5533 5534 5537 5540 5543 5545 5548 5553 5561 5567 5572 5578 5581 5583 5587 5592 5594 5594 5599 5608 5614 5619 5622 5624 5629 5631 5629 5634 5640 5638 5635 5643 5651 5651 5652 5652 5652 5655 5653 5652 5656 5659 5673 5689 5689 5694 5705 5708 5714 5718 5716 5721 5725 5728 5733 5735 5736 5736
5520 5519 5518 5517 5516 5515 5514 5512 5511 5509 5507 5506 5505 5505 5507 5508 5509 5509 5511 5513 5514 5515 5516 5516 5518 5519 5521 5523 5526 5529 5531 5532 5534 5537 5539 5541 5544 5549 5557 5562 5568 5572 5574 5578 5583 5588 5590 5592 5599 5605 5607 5611 5618 5622 5623 5621 5622 5629 5629 5625 5633 5645 5647 5643 5641 5643 5644 5641 5640 5645 5652 5659 5667 5674 5681 5692 5697 5696 5703 5711 5714 5716 5718 5720 5725 5727 5727 5727
5518 5518 5517 5516 5515 5513 5512 5510 5509 5507 5506 5504 5503 5503 5504 5505 5505 5506 5508 5509 5511 5512 5512 5513 5515 5516 5518 5520 5522 5525 5527 5529 5531 5533 5536 5537 5538 5544 5550 5555 5562 5566 5570 5576 5580 5583 5586 5589 5593 5599 5601 5606 5614 5615 5612 5613 5618 5622 5619 5624 5639 5639 5633 5634 5634 5635 5635 5630 5633 5640 5646 5653 5657 5661 5677 5688 5687 5689 5696 5701 5706 5712 5713 5713 5716 5717 5717 5719
5518 5516 5515 5515 5513 5512 5510 5508 5507 5506 5504 5503 5501 5501 5501 5501 5502 5503 5504 5506 5507 5508 5509 5511 5513 5514 5516 5518 5520 5522 5522 5524 5527 5529 5532 5533 5535 5541 5546 5550 5556 5561 5568 5573 5573 5577 5583 5583 5587 5593 5596 5600 5605 5604 5602 5606 5610 5611 5613 5623 5628 5622 5621 5627 5626 5625 5627 5623 5627 5635 5639 5644 5647 5654 5672 5682 5683 5686 5687 5690 5698 5706 5708 5707 5708 5707 5707 5711
5516 5515 5514 5513 5511 5510 5509 5507 5505 5504 5502 5500 5499 5498 5498 5499 5500 5500 5502 5503 5504 5505 5506 5508 5510 5511 5513 5515 5517 5518 5518 5521 5523 5525 5528 5529 5533 5539 5543 5547 5551 5556 5564 5566 5567 5573 5577 5577 5580 5586 5589 5592 5593 5592 5593 5600 5603 5604 5609 5613 5613 5612 5617 5621 5619 5621 5624 5620 5621 5628 5629 5631 5639 5653 5666 5674 5680 5681 5679 5684 5689 5693 5698 5701 5700 5699 5699 5701
5515 5513 5512 5511 5510 5509 5507 5506 5505 5503 5501 5499 5497 5496 5496 5496 5497 5498 5500 5500 5501 5502 5504 5505 5507 5508 5510 5512 5513 5514 5516 5518 5520 5521 5523 5526 5530 5535 5538 5542 5546 5552 5559 5560 5562 5568 5571 5570 5573 5578 5581 5581 5581 5582 5588 5596 5598 5598 5601 5603 5605 5607 5610 5612 5612 5615 5617 5614 5615 5617 5616 5623 5638 5649 5656 5664 5670 5671 5673 5678 5678 5678 5686 5692 5693 5693 5692 5692
5513 5512 5511 5510 5509 5508 5506 5505 5504 5502 5500 5497 5495 5495 5494 5494 5495 5496 5497 5498 5499 5499 5500 5502 5504 5506 5508 5509 5510 5511 5512 5513 5516 5517 5518 5521 5525 5529 5533 5537 5541 5547 5551 5551 5554 5561 5563 5565 5569 5571 5571 5572 5576 5583 5589 5592 5592 5592 5596 5598 5602 5604 5606 5605 5603 5606 5610 5608 5608 5609 5608 5618 5631 5637 5643 5654 5659 5661 5666 5671 5671 5671 5674 5679 5684 5685 5685 5686
5511 5510 5509 5508 5507 5506 5505 5504 5503 5501 5498 5497 5495 5494 5493 5493 5493 5494 5495 5495 5496 5496 5497 5499 5501 5503 5504 5506 5507 5508 5507 5509 5511 5511 5514 5518 5521 5524 5529 5532 5535 5540 5542 5543 5549 5558 5560 5560 5562 5563 5564 5568 5574 5578 5580 5582 5585 5588 5590 5592 5596 5598 5598 5597 5596 5604 5609 5603 5605 5607 5601 5606 5620 5629 5638 5648 5652 5655 5662 5666 5666 5664 5663 5667 5673 5675 5676 5679
5510 5508 5508 5507 5506 5505 5504 5502 5502 5500 5498 5496 5494 5493 5492 5492 5492 5492 5492 5493 5493 5494 5494 5496 5498 5500 5501 5502 5503 5504 5504 5505 5506 5508 5511 5514 5517 5522 5525 5529 5533 5535 5537 5539 5546 5551 5549 5547 5551 5555 5558 5563 5566 5568 5572 5576 5578 5578 5580 5584 5587 5587 5590 5592 5594 5601 5602 5595 5599 5600 5589 5595 5616 5629 5635 5640 5644 5650 5655 5657 5656 5655 5655 5658 5661 5663 5666 5670
5509 5507 5506 5505 5504 5503 5502 5501 5500 5498 5497 5495 5494 5492 5491 5490 5490 5490 5490 5490 5491 5491 5492 5493 5495 5496 5498 5499 5499 5499 5501 5502 5503 5506 5508 5510 5514 5518 5520 5524 5528 5529 5531 5536 5541 5543 5540 5539 5544 5547 5548 5552 5555 5557 5562 5565 5566 5568 5573 5578 5580 5583 5588 5588 5589 5592 5587 5583 5590 5589 5581 5592 5614 5624 5626 5629 5634 5639 5644 5646 5646 5645 5647 5649 5650 5652 5655 5659
5509 5506 5504 5503 5502 5501 5500 5499 5497 5496 5495 5494 5493 5492 5490 5489 5489 5488 5488 5488 5488 5489 5489 5490 5492 5493 5494 5494 5495 5496 5498 5499 5501 5503 5504 5507 5511 5513 5515 5518 5519 5521 5525 5530 5535 5537 5535 5536 5537 5536 5536 5539 5543 5547 5552 5558 5562 5565 5568 5572 5574 5578 5580 5580 5582 5581 5575 5577 5584 5580 5578 5593 5609 5617 5620 5622 5624 5628 5634 5638 5638 5637 5638 5640 5642 5643 5645 5650
5508 5506 5503 5501 5500 5499 5498 5497 5496 5494 5493 5492 5491 5490 5489 5488 5487 5486 5486 5486 5486 5486 5486 5487 5488 5489 5490 5491 5492 5494 5495 5497 5498 5498 5500 5504 5508 5510 5512 5512 5513 5517 5521 5524 5528 5529 5528 5529 5531 5529 5530 5534 5539 5545 5552 5556 5557 5557 5560 5566 5569 5571 5573 5575 5573 5569 5571 5577 5576 5573 5580 5592 5602 5611 5615 5615 5618 5623 5629 5632 5631 5630 5630 5632 5634 5635 5637 5642
5507 5505 5503 5501 5499 5497 5496 5495 5494 5492 5491 5490 5489 5488 5487 5486 5486 5485 5484 5484 5484 5483 5483 5485 5485 5486 5487 5489 5490 5490 5491 5492 5493 5494 5497 5501 5504 5507 5508 5508 5510 5513 5516 5518 5519 5519 5518 5521 5526 5527 5528 5531 5537 5544 5547 5546 5545 5548 5554 5559 5562 5564 5567 5566 5562 5564 5573 5573 5565 5572 5583 5585 5591 5605 5610 5609 5612 5616 5620 5623 5623 5623 5623 5623 5625 5627 5629 5633
5505 5503 5502 5499 5497 5495 5494 5493 5492 5491 5490 5488 5487 5487 5486 5485 5484 5483 5483 5482 5481 5481 5481 5482 5483 5484 5485 5485 5485 5485 5486 5487 5488 5491 5495 5498 5501 5503 5502 5504 5507 5508 5509 5510 5511 5512 5511 5513 5519 5523 5524 5527 5532 5537 5538 5537 5537 5541 5546 5549 5554 5556 5556 5555 5555 5562 5568 5562 5560 5574 5580 5576 5583 5596 5601 5603 5605 5607 5611 5612 5612 5614 5615 5615 5615 5617 5619 5623
5503 5502 5500 5497 5495 5493 5492 5491 5489 5489 5488 5486 5486 5485 5484 5483 5482 5481 5481 5479 5479 5478 5478 5479 5481 5481 5481 5480 5480 5480 5481 5483 5485 5490 5493 5494 5496 5496 5496 5497 5500 5501 5501 5502 5503 5505 5503 5505 5512 5515 5516 5520 5525 5529 5532 5531 5530 5533 5536 5540 5544 5546 5547 5548 5550 5556 5559 5556 5559 5568 5568 5567 5575 5584 5591 5597 5598 5598 5600 5600 5601 5606 5608 5607 5606 5607 5610 5613
5501 5500 5498 5496 5493 5491 5490 5488 5487 5486 5485 5484 5483 5483 5482 5481 5480 5479 5478 5477 5477 5476 5475 5476 5477 5476 5474 5475 5474 5475 5479 5481 5483 5488 5490 5488 5488 5489 5489 5490 5493 5493 5493 5494 5496 5497 5497 5500 5506 5508 5507 5509 5515 5521 5524 5522 5522 5524 5527 5531 5535 5537 5539 5540 5542 5547 5550 5549 5554 5559 5558 5560 5568 5577 5583 5589 5590 5590 5591 5592 5595 5598 5599 5600 5600 5601 5604 5605
5500 5498 5497 5495 5492 5488 5487 5486 5484 5483 5483 5481 5480 5480 5479 5478 5478 5476 5476 5475 5474 5474 5473 5473 5472 5470 5470 5471 5471 5474 5479 5479 5479 5482 5482 5480 5481 5482 5483 5485 5487 5487 5488 5490 5492 5493 5495 5498 5502 5503 5499 5501 5509 5513 5513 5516 5517 5514 5514 5521 5526 5528 5530 5533 5536 5540 5542 5544 5549 5551 5549 5554 5566 5575 5578 5581 5584 5583 5583 5587 5589 5590 5593 5595 5595 5597 5599 5599
5498 5496 5495 5494 5492 5488 5485 5484 5482 5480 5480 5478 5477 5477 5476 5476 5475 5473 5473 5473 5472 5471 5470 5468 5467 5466 5466 5468 5470 5474 5475 5473 5473 5475 5473 5472 5475 5476 5477 5481 5482 5482 5484 5486 5487 5490 5491 5493 5496 5497 5494 5497 5504 5505 5506 5511 5506 5497 5502 5514 5520 5523 5526 5529 5531 5534 5537 5540 5541 5540 5543 5553 5565 5569 5569 5571 5575 5575 5577 5582 5584 5584 5586 5586 5587 5590 5591 5590